#timestamp,LO_Frequency,Hit,StdDev 
1677715215.5,286047002.7,N
1677715235.4,286046998.5,N
1677715255.2,286046997.7,N
1677715275.0,286046997.4,N
1677715275.9,286046997.4,N
1677715295.8,286046999.6,N
1677715315.6,286046998.9,N
1677715335.4,286047000.1,N
1677715355.3,286046999.7,N
1677715375.1,286047007.6,Y
1677715395.9,286047009.6,P
1677715415.7,286047007.7,N
1677715435.5,286047006.4,N
1677715455.4,286047008.1,N
1677715475.2,286047007.3,N
1677715495.0,286047004.9,N
1677715495.9,286047004.9,N
1677715515.8,286047007.7,N
1677715535.6,286047008.2,Y
1677715555.5,286047003.6,P
1677715575.3,286047004.2,P
1677715595.1,286047003.1,N
1677715615.9,286047003.1,N
1677715635.7,286047004.9,Y
1677715655.6,286047002.7,P
1677715675.4,286047002.6,P
1677715695.2,286046998.7,N
1677715715.1,286046997.4,N
1677715716.0,286046997.4,N
1677715735.8,286046997.7,N
1677715755.6,286046996.5,N
1677715775.5,286046997.9,N
1677715795.3,286046995.2,N
1677715815.2,286046996.5,N
1677715835.9,286046999.0,N
1677715855.7,286046999.4,N
1677715875.6,286046997.6,N
1677715895.4,286046995.8,N
1677715915.2,286046996.4,N
1677715935.1,286046994.4,N
1677715936.0,286046994.4,N
1677715955.8,286046990.2,Y
1677715975.7,286046992.8,P
1677715995.5,286046988.6,P
1677716015.3,286046988.9,N
1677716035.2,286046988.9,N
1677716055.9,286046989.4,N
1677716075.7,286046991.1,N
1677716095.6,286046991.2,N
1677716115.4,286046988.9,Y
1677716135.3,286046999.5,P
1677716155.1,286046999.0,N
1677716156.0,286046999.0,N
1677716175.8,286046996.5,N
1677716195.7,286046998.0,N
1677716215.5,286046997.8,N
1677716235.3,286046999.5,N
1677716255.2,286046996.7,N
1677716275.0,286046997.9,N
1677716275.9,286046997.9,N
1677716295.8,286046994.9,N
1677716315.6,286046997.2,N
1677716335.4,286046997.7,N
1677716355.3,286046998.0,N
1677716375.1,286046999.6,N
1677716395.8,286046999.3,N
1677716415.7,286046998.4,N
1677716435.5,286046998.3,N
1677716455.4,286046997.4,N
1677716475.2,286046995.4,N
1677716495.0,286046993.9,Y
1677716495.9,286046993.9,P
1677716515.8,286046997.1,N
1677716535.6,286046997.1,N
1677716555.5,286046995.3,Y
1677716575.3,286047000.7,P
1677716595.1,286047001.0,N
1677716615.9,286046998.4,N
1677716635.7,286046998.5,N
1677716655.5,286046996.7,N
1677716675.4,286046996.5,N
1677716695.2,286046998.3,N
1677716715.0,286046998.6,N
1677716716.0,286046998.6,N
1677716735.8,286046999.3,N
1677716755.6,286046998.7,N
1677716775.5,286046998.1,N
1677716795.3,286047000.8,N
1677716815.1,286047000.3,N
1677716835.9,286047000.8,N
1677716855.7,286046999.7,N
1677716875.5,286047000.1,N
1677716895.4,286047000.8,N
1677716915.2,286047000.8,N
1677716935.1,286046998.8,N
1677716936.0,286046998.8,N
1677716955.8,286046999.3,N
1677716975.6,286047000.0,N
1677716995.5,286047002.5,N
1677717015.3,286047001.8,N
1677717035.1,286047003.2,N
1677717055.9,286047001.7,N
1677717075.7,286047001.4,N
1677717095.6,286047004.3,N
1677717115.4,286047004.0,N
1677717135.2,286047002.5,N
1677717155.1,286046999.9,N
1677717156.0,286046999.9,N
1677717175.8,286046998.1,N
1677717195.7,286046999.6,N
1677717215.5,286046997.2,N
1677717235.3,286046997.5,N
1677717255.2,286046998.0,N
1677717275.0,286046997.1,N
1677717275.9,286046997.1,N
1677717295.8,286046996.5,N
1677717315.6,286046999.9,N
1677717335.4,286047000.9,N
1677717355.3,286047000.7,N
1677717375.1,286047000.5,N
1677717395.8,286047000.1,N
1677717415.7,286047001.5,N
1677717435.5,286047002.7,N
1677717455.4,286046999.9,N
1677717475.2,286047002.6,N
1677717495.0,286047004.3,N
1677717495.9,286047004.3,N
1677717515.8,286047002.4,N
1677717535.6,286047001.3,N
1677717555.4,286047004.0,N
1677717575.3,286047004.0,N
1677717595.1,286047002.4,N
1677717615.9,286047002.6,N
1677717635.7,286047001.6,N
1677717655.5,286047002.1,N
1677717675.4,286047002.2,N
1677717695.2,286047004.2,N
1677717715.0,286047004.4,N
1677717715.9,286047004.4,N
1677717735.8,286047002.3,N
1677717755.6,286047001.6,N
1677717775.5,286047002.1,N
1677717795.3,286047002.3,N
1677717815.1,286047001.5,N
1677717835.9,286047002.0,N
1677717855.7,286047001.9,N
1677717875.5,286047002.7,N
1677717895.4,286047001.4,N
1677717915.2,286047001.6,N
1677717935.1,286047001.7,N
1677717936.0,286047001.7,N
1677717955.8,286047004.3,Y
1677717975.6,286047000.8,P
1677717995.5,286047000.4,N
1677718015.3,286046999.8,N
1677718035.1,286047002.3,N
1677718055.9,286046999.8,N
1677718075.7,286047003.5,Y
1677718095.6,286047005.1,P
1677718115.4,286047001.6,N
1677718135.2,286047000.5,N
1677718155.1,286047001.1,N
1677718156.0,286047001.1,N
1677718175.8,286047001.2,N
1677718195.7,286047000.8,N
1677718215.5,286046998.7,N
1677718235.3,286046996.5,N
1677718255.2,286046999.5,N
1677718275.0,286047002.6,N
1677718275.9,286047002.6,N
1677718295.8,286047003.8,N
1677718315.6,286047001.5,N
1677718335.4,286046999.9,N
1677718355.3,286046998.2,N
1677718375.1,286046996.7,N
1677718395.8,286046996.7,N
1677718415.7,286046996.8,N
1677718435.5,286046998.0,N
1677718455.4,286046995.6,N
1677718475.2,286046996.3,N
1677718495.0,286046995.7,N
1677718495.9,286046995.7,N
1677718515.8,286046994.9,N
1677718535.6,286046995.3,N
1677718555.4,286046996.1,N
1677718575.3,286046995.4,N
1677718595.1,286046998.8,N
1677718615.9,286047000.8,N
1677718635.7,286046998.3,N
1677718655.5,286046999.4,N
1677718675.4,286046998.4,N
1677718695.2,286047001.1,N
1677718715.0,286046998.6,N
1677718715.9,286046998.6,N
1677718735.8,286047001.0,N
1677718755.6,286047000.8,N
1677718775.5,286046999.0,N
1677718795.3,286046999.2,N
